Location: Korczew
(51.3586°N, 19.4491°E)
Time: 21:51:57
(UTC+00:00)

ATLAS 3B R/B - Pass Details

Date: 19 May 2025
Orbit: 935 x 1258 km, 63.8° (Epoch: 16 June)

Event Time Altitude Azimuth Distance (km) Brightness Sun altitude
Exits shadow 23:17:17 - 240° (WSW) 3,170 4.8 -18.2°
Reaches altitude 10° 23:17:29 10° 240° (WSW) 3,103 4.8 -18.2°
Maximum altitude 23:24:57 64° 322° (NW) 1,352 3.4 -17.9°
Drops below altitude 10° 23:32:49 10° 44° (NE) 3,248 6.1 -17.7°
Sets 23:35:42 0° 47° (NE) 4,220 6.8 -17.6°
